Location: Star Dogged Moon Observatory
(29.7756°N, 82.0783°W)
Time: 08:33:39
(UTC-04:00)

Amateur Radio Satellites - All Passes

Search period start: 01 November 2014 08:03
Search period end: 02 November 2014 07:03
Location: Star Dogged Moon Observatory, 29.7756°N, 82.0783°W

Satellite Date Start Highest point End Downlink Frequencies (MHz)
Time Altitude Azimuth
PANSAT 01 Nov 08:05:00 08:08:39 42° 195° (SSW) 08:12:16 not established
Hamsat 01 Nov 08:06:05 08:09:10 20° 288° (WNW) 08:12:16 145.90 MHz
SO-67 01 Nov 08:22:57 08:26:24 72° 101° (ESE) 08:29:48 435.3500 MHz FM
STRAND 1 01 Nov 08:54:52 08:57:46 15° 265° (W) 09:00:41 ?
RS-15 01 Nov 09:07:42 09:16:57 30° 255° (WSW) 09:26:34 29.354 - 29.394 USB, Beacon 29.352 USB
MaSat-1 01 Nov 09:10:59 09:12:46 19° 253° (WSW) 09:14:32 437.345 MHz
HO-68 01 Nov 09:23:17 09:28:54 24° 97° (E) 09:34:27 435.675 MHz FM
PANSAT 01 Nov 09:46:18 09:48:23 14° 205° (SSW) 09:50:27 not established
ISS 01 Nov 09:48:14 09:51:32 77° 314° (NW) 09:54:51 145.800 FM
UKube-1 01 Nov 10:16:26 10:19:27 18° 96° (E) 10:22:27 145.840 MHz, 145.915 MHz
Oscar 11 01 Nov 10:49:35 10:53:45 47° 100° (E) 10:57:54 145.825 FM, Beacon 2401.500 USB
KITSAT 1 01 Nov 10:54:20 11:02:19 69° 112° (ESE) 11:10:19 435.175 FM
SO-50 01 Nov 10:55:57 11:00:14 51° 114° (ESE) 11:04:39 436.795 FM
PCSat 01 Nov 11:07:11 11:09:23 12° 52° (NE) 11:11:34 145.825 MHz
FUNcube-1 01 Nov 11:09:02 11:12:41 29° 98° (E) 11:16:17 145.950 - 145.970 MHz USB
HO-68 01 Nov 11:09:51 11:16:42 49° 290° (WNW) 11:23:31 435.675 MHz FM
UKube-1 01 Nov 11:51:52 11:55:34 28° 288° (WNW) 11:59:15 145.840 MHz, 145.915 MHz
ZACube-1 01 Nov 12:02:19 12:06:22 51° 284° (WNW) 12:10:23 437.345 MHz
Sapphire 01 Nov 12:26:22 12:31:45 62° 64° (ENE) 12:37:05 437.095 MHz 1200 baud AX-25 AFSK
Oscar 11 01 Nov 12:28:26 12:29:27 11° 292° (WNW) 12:30:28 145.825 FM, Beacon 2401.500 USB
SO-50 01 Nov 12:38:52 12:41:04 13° 309° (NW) 12:43:19 436.795 FM
FUNcube-1 01 Nov 12:46:19 12:48:46 16° 290° (WNW) 12:51:13 145.950 - 145.970 MHz USB
PCSat 01 Nov 12:47:54 12:53:19 74° 248° (WSW) 12:58:41 145.825 MHz
KITSAT 1 01 Nov 12:52:16 12:58:17 23° 309° (NW) 13:04:20 435.175 FM
Oscar 16 01 Nov 12:58:58 13:00:10 11° 65° (ENE) 13:01:22 437.025 USB, Beacon 2401.1428
JAS-1B 01 Nov 13:02:40 13:04:53 12° 64° (ENE) 13:07:04 435.800 - 435.900 CW/SSB
UOSAT-12 01 Nov 13:14:14 13:18:46 60° 299° (WNW) 13:23:24 437.025 FM, 437.400 FM
ITAMSAT 1 01 Nov 13:41:44 13:43:12 11° 65° (ENE) 13:44:40 435.822 SSB
Oscar 19 01 Nov 13:47:01 13:51:42 37° 72° (ENE) 13:56:22 437.125 CW, 437.150 USB
Sapphire 01 Nov 14:12:30 14:14:32 12° 257° (WSW) 14:16:35 437.095 MHz 1200 baud AX-25 AFSK
AO-27 01 Nov 14:26:00 14:30:42 35° 72° (ENE) 14:35:25 436.795 MHz FM
Oscar 16 01 Nov 14:33:45 14:38:52 68° 258° (WSW) 14:44:00 437.025 USB, Beacon 2401.1428
Gurwin Techsat 1B 01 Nov 14:47:50 14:52:21 29° 71° (ENE) 14:56:52 435.225 FM
JAS-1B 01 Nov 14:49:11 14:55:00 60° 258° (WSW) 15:00:36 435.800 - 435.900 CW/SSB
TMSAT-1 01 Nov 14:53:52 14:58:02 24° 70° (ENE) 15:02:13 436.925 FM
AO-Echo 01 Nov 14:59:57 15:04:53 76° 258° (WSW) 15:10:00 ?
AO-7 01 Nov 15:00:49 15:03:03 11° 54° (NE) 15:05:18 29.400 - 29.500 MHz
Uribyol 2 01 Nov 15:08:34 15:13:47 78° 257° (WSW) 15:19:01 436.500 FM
ITAMSAT 1 01 Nov 15:16:52 15:22:02 68° 258° (WSW) 15:27:15 435.822 SSB
Saudisat 1A 01 Nov 15:26:12 15:30:32 54° 61° (ENE) 15:34:51 436.775 MHz
Oscar 19 01 Nov 15:27:28 15:31:03 19° 264° (W) 15:34:39 437.125 CW, 437.150 USB
AO-27 01 Nov 16:06:24 16:10:12 21° 264° (W) 16:14:03 436.795 MHz FM
Gurwin Techsat 1B 01 Nov 16:27:51 16:32:11 26° 263° (W) 16:36:33 435.225 FM
TMSAT-1 01 Nov 16:33:04 16:37:43 31° 262° (W) 16:42:25 436.925 FM
AO-7 01 Nov 16:46:11 16:54:24 72° 71° (ENE) 17:02:38 29.400 - 29.500 MHz
Uosat F 01 Nov 16:52:35 16:57:24 49° 73° (ENE) 17:02:15 435.120 FM
OPAL 01 Nov 17:34:52 17:36:18 11° 96° (E) 17:37:44 ?
JAS-2 01 Nov 17:39:39 17:45:19 40° 69° (ENE) 17:51:40 435.800 - 435.900 CW/SSB, 435.910 FM
ISS 01 Nov 17:58:03 18:01:23 83° 48° (NE) 18:04:42 145.800 FM
Uosat F 01 Nov 18:33:53 18:36:21 14° 266° (W) 18:38:50 435.120 FM
AO-7 01 Nov 18:42:21 18:47:37 18° 264° (W) 18:52:56 29.400 - 29.500 MHz
Hamsat 01 Nov 18:52:13 18:56:20 59° 260° (W) 19:00:28 145.90 MHz
KITSAT 1 01 Nov 18:57:38 19:00:33 12° 43° (NE) 19:03:26 435.175 FM
RS-15 01 Nov 19:09:16 19:10:03 10° 99° (E) 19:10:50 29.354 - 29.394 USB, Beacon 29.352 USB
OPAL 01 Nov 19:10:35 19:15:25 57° 287° (WNW) 19:20:15 ?
JAS-2 01 Nov 19:25:31 19:30:28 26° 267° (W) 19:35:55 435.800 - 435.900 CW/SSB, 435.910 FM
STRAND 1 01 Nov 19:30:48 19:35:03 26° 97° (E) 19:39:15 ?
SO-50 01 Nov 19:35:20 19:37:05 12° 50° (NE) 19:38:50 436.795 FM
Oscar 10/S400 01 Nov 20:10:25 20:42:45 72° 199° (SSW) 05:53:04 145.825 - 145.975 CW/USB, Beacon 145.810 USB
AO-40 01 Nov 20:10:56 22:25:37 44° 207° (SSW) 02:48:29 Beacon 2401.320
SO-67 01 Nov 20:22:26 20:25:32 32° 262° (W) 20:28:40 435.3500 MHz FM
KITSAT 1 01 Nov 20:49:24 20:57:27 67° 63° (ENE) 21:05:26 435.175 FM
MaSat-1 01 Nov 21:06:05 21:07:25 11° 105° (ESE) 21:08:42 437.345 MHz
RS-15 01 Nov 21:09:33 21:20:35 74° 113° (ESE) 21:31:25 29.354 - 29.394 USB, Beacon 29.352 USB
STRAND 1 01 Nov 21:09:48 21:14:06 27° 290° (WNW) 21:18:22 ?
SO-50 01 Nov 21:13:13 21:18:05 72° 245° (WSW) 21:22:56 436.795 FM
HO-68 01 Nov 21:30:57 21:38:03 69° 73° (ENE) 21:45:10 435.675 MHz FM
Oscar 11 01 Nov 21:39:47 21:42:43 18° 70° (ENE) 21:45:39 145.825 FM, Beacon 2401.500 USB
UOSAT-12 01 Nov 21:50:13 21:53:57 23° 55° (NE) 21:57:37 437.025 FM, 437.400 FM
FUNcube-1 01 Nov 22:01:03 22:03:10 13° 69° (ENE) 22:05:16 145.950 - 145.970 MHz USB
MaSat-1 01 Nov 22:38:51 22:42:31 35° 293° (WNW) 22:45:53 437.345 MHz
UKube-1 01 Nov 22:40:29 22:44:48 70° 258° (WSW) 22:49:09 145.840 MHz, 145.915 MHz
KITSAT 1 01 Nov 22:46:40 22:52:04 20° 257° (WSW) 22:57:28 435.175 FM
ZACube-1 01 Nov 22:52:11 22:56:38 56° 76° (ENE) 23:01:01 437.345 MHz
Oscar 11 01 Nov 23:14:57 23:18:39 28° 263° (W) 23:22:21 145.825 FM, Beacon 2401.500 USB
HO-68 01 Nov 23:21:58 23:26:08 16° 265° (W) 23:30:19 435.675 MHz FM
RS-15 01 Nov 23:25:00 23:33:48 27° 313° (NW) 23:42:37 29.354 - 29.394 USB, Beacon 29.352 USB
UOSAT-12 01 Nov 23:30:01 23:34:02 29° 249° (WSW) 23:37:58 437.025 FM, 437.400 FM
FUNcube-1 01 Nov 23:34:49 23:39:08 43° 261° (W) 23:43:24 145.950 - 145.970 MHz USB
Sapphire 02 Nov 01:20:37 01:24:19 19° 105° (ESE) 01:28:02 437.095 MHz 1200 baud AX-25 AFSK
PCSat 02 Nov 01:40:48 01:45:37 34° 108° (ESE) 01:50:28 145.825 MHz
Oscar 19 02 Nov 01:05:16 01:09:07 21° 96° (E) 01:12:58 437.125 CW, 437.150 USB
JAS-1B 02 Nov 01:36:54 01:44:27 55° 102° (ESE) 01:53:19 435.800 - 435.900 CW/SSB
PANSAT 02 Nov 01:40:02 01:43:08 23° 159° (SSE) 01:46:14 not established
AO-27 02 Nov 01:45:46 01:49:39 21° 96° (E) 01:53:30 436.795 MHz FM
Oscar 16 02 Nov 01:51:34 01:56:41 72° 102° (ESE) 02:01:47 437.025 USB, Beacon 2401.1428
Sapphire 02 Nov 02:02:17 02:07:21 41° 298° (WNW) 02:12:28 437.095 MHz 1200 baud AX-25 AFSK
Gurwin Techsat 1B 02 Nov 02:10:40 02:14:23 19° 95° (E) 02:18:05 435.225 FM
AO-Echo 02 Nov 02:13:19 02:18:33 60° 101° (E) 02:23:40 ?
TMSAT-1 02 Nov 02:16:32 02:19:34 15° 94° (E) 02:22:35 436.925 FM
PCSat 02 Nov 02:24:40 02:29:01 24° 302° (WNW) 02:33:23 145.825 MHz
Uribyol 2 02 Nov 02:27:34 02:32:43 64° 102° (ESE) 02:37:49 436.500 FM
ITAMSAT 1 02 Nov 02:35:56 02:41:09 73° 102° (ESE) 02:46:18 435.822 SSB
Oscar 19 02 Nov 02:43:54 02:48:25 33° 288° (WNW) 02:52:57 437.125 CW, 437.150 USB
RS-15 02 Nov 03:10:21 03:13:03 11° 29° (NNE) 03:15:47 29.354 - 29.394 USB, Beacon 29.352 USB
PANSAT 02 Nov 03:19:12 03:23:00 58° 170° (S) 03:26:47 not established
AO-27 02 Nov 03:24:28 03:29:08 34° 289° (WNW) 03:33:47 436.795 MHz FM
JAS-1B 02 Nov 03:28:34 03:34:39 27° 291° (WNW) 03:41:33 435.800 - 435.900 CW/SSB
Oscar 16 02 Nov 03:35:04 03:35:21 10° 295° (WNW) 03:35:39 437.025 USB, Beacon 2401.1428
OPAL 02 Nov 03:44:26 03:46:12 12° 64° (ENE) 03:47:57 ?
Gurwin Techsat 1B 02 Nov 03:49:30 03:54:23 39° 288° (WNW) 03:59:15 435.225 FM
AO-Echo 02 Nov 03:54:18 03:56:42 13° 294° (WNW) 03:59:05 ?
TMSAT-1 02 Nov 03:54:34 03:59:38 47° 287° (WNW) 04:04:40 436.925 FM
AO-7 02 Nov 03:55:08 04:02:34 35° 100° (E) 04:09:58 29.400 - 29.500 MHz
Uosat F 02 Nov 04:06:57 04:11:04 25° 97° (E) 04:15:08 435.120 FM
Uribyol 2 02 Nov 04:09:48 04:11:34 12° 295° (WNW) 04:13:20 436.500 FM
ITAMSAT 1 02 Nov 04:19:23 04:19:56 10° 296° (WNW) 04:20:28 435.822 SSB
Saudisat 1A 02 Nov 04:26:38 04:30:56 60° 115° (ESE) 04:35:15 436.775 MHz
PANSAT 02 Nov 04:59:13 05:03:03 72° 183° (S) 05:06:53 not established
RS-15 02 Nov 05:18:21 05:29:07 48° 56° (ENE) 05:40:16 29.354 - 29.394 USB, Beacon 29.352 USB
OPAL 02 Nov 05:19:25 05:24:30 64° 257° (WSW) 05:29:32 ?
JAS-2 02 Nov 05:39:34 05:47:23 67° 101° (E) 05:54:39 435.800 - 435.900 CW/SSB, 435.910 FM
STRAND 1 02 Nov 05:41:25 05:45:10 21° 69° (ENE) 05:48:55 ?
Hamsat 02 Nov 05:43:48 05:47:43 36° 98° (E) 05:51:39 145.90 MHz
Uosat F 02 Nov 05:45:30 05:49:43 28° 290° (WNW) 05:53:55 435.120 FM
AO-7 02 Nov 05:47:36 05:55:14 42° 294° (WNW) 06:02:54 29.400 - 29.500 MHz
Saudisat 1A 02 Nov 06:09:34 06:10:50 11° 309° (NW) 06:12:06 436.775 MHz
PANSAT 02 Nov 06:39:26 06:43:03 40° 195° (SSW) 06:46:40 not established
SO-67 02 Nov 06:51:34 06:54:19 22° 97° (E) 06:57:03 435.3500 MHz FM
